Weather History for La Grande, OR

Change the Weather History Date:

Monday, August 11, 2014

  Actual Average Record
Temperature  
Mean Temperature 76 °F -  
Max Temperature 98 °F 85 °F 100 °F (1971)
Min Temperature 55 °F 49 °F 39 °F (2007)
Cooling Degree Days 12    
Growing Degree Days 26 (Base 50)    
Moisture  
Dew Point 42 °F    
Average Humidity 30    
Maximum Humidity 48    
Minimum Humidity 17    
Precipitation  
Precipitation 0.00 in - - ()
Sea Level Pressure  
Sea Level Pressure 30.03 in    
Wind  
Wind Speed 4 mph (NNW)    
Max Wind Speed 17 mph    
Max Gust Speed 21 mph    
Visibility 10 miles    
Events      
Averages and records for this station are not official NWS values.
T = Trace of Precipitation, MM = Missing Value Source: NWS Daily Summary

Daily Weather History Graph

Daily Weather History Graph

Search for Another Location

Airport:

Trip Planner

Search our weather history database for the weather conditions in past years. The results will help you decide how hot, cold, wet, or windy it might be!

Date:

Astronomy

Aug. 11, 2014 Rise Set
Actual Time 5:48 AM PDT 8:05 PM PDT
Civil Twilight 5:15 AM PDT 8:37 PM PDT
Nautical Twilight 4:35 AM PDT 9:17 PM PDT
Astronomical Twilight 3:49 AM PDT 10:03 PM PDT
Moon 8:28 PM PDT (8/11) 7:05 AM PDT (8/11)
Length of Visible Light 15h 21m
Length of Day
14h 16m
Full, 98% of the Moon is Illuminated
Aug 11
Full
Aug 17
Last Quarter
Aug 25
New
Sep 2
First Quarter
Sep 8
Full

Hourly Weather History & Observations

Time (PDT) Temp. Dew Point Humidity Pressure Visibility Wind Dir Wind Speed Gust Speed Precip Events Conditions
12:15 AM 75.2 °F 37.4 °F 25% 30.06 in 10.0 mi Calm Calm - N/A   Clear
12:35 AM 73.4 °F 37.4 °F 27% 30.06 in 10.0 mi Calm Calm - N/A   Clear
12:55 AM 73.4 °F 37.4 °F 27% 30.06 in 10.0 mi NE 4.6 mph - N/A   Clear
1:15 AM 69.8 °F 37.4 °F 31% 30.06 in 10.0 mi Calm Calm - N/A   Clear
1:35 AM 71.6 °F 37.4 °F 29% 30.06 in 10.0 mi NNW 5.8 mph - N/A   Clear
1:55 AM 69.8 °F 37.4 °F 31% 30.06 in 10.0 mi WNW 4.6 mph - N/A   Clear
2:15 AM 69.8 °F 35.6 °F 28% 30.06 in 10.0 mi WNW 5.8 mph - N/A   Clear
2:35 AM 66.2 °F 35.6 °F 32% 30.06 in 10.0 mi West 6.9 mph - N/A   Clear
2:55 AM 64.4 °F 35.6 °F 34% 30.07 in 10.0 mi NNW 3.5 mph - N/A   Clear
3:15 AM 62.6 °F 37.4 °F 39% 30.06 in 9.0 mi North 5.8 mph - N/A   Clear
3:35 AM 64.4 °F 37.4 °F 37% 30.07 in 10.0 mi Calm Calm - N/A   Clear
3:55 AM 64.4 °F 37.4 °F 37% 30.07 in 10.0 mi Calm Calm - N/A   Clear
4:15 AM 60.8 °F 35.6 °F 39% 30.07 in 10.0 mi Calm Calm - N/A   Clear
4:35 AM 57.2 °F 35.6 °F 44% 30.07 in 10.0 mi Calm Calm - N/A   Clear
4:55 AM 55.4 °F 33.8 °F 44% 30.08 in 10.0 mi Calm Calm - N/A   Clear
5:15 AM 59.0 °F 37.4 °F 45% 30.08 in 10.0 mi Calm Calm - N/A   Clear
5:35 AM 60.8 °F 35.6 °F 39% 30.08 in 10.0 mi Calm Calm - N/A   Clear
5:55 AM 59.0 °F 37.4 °F 45% 30.09 in 10.0 mi Calm Calm - N/A   Clear
6:15 AM 57.2 °F 35.6 °F 44% 30.09 in 9.0 mi SE 3.5 mph - N/A   Clear
6:35 AM 57.2 °F 35.6 °F 44% 30.09 in 9.0 mi Calm Calm - N/A   Clear
6:55 AM 57.2 °F 37.4 °F 48% 30.09 in 10.0 mi North 3.5 mph - N/A   Clear
7:15 AM 62.6 °F 39.2 °F 42% 30.09 in 9.0 mi Calm Calm - N/A   Clear
7:35 AM 66.2 °F 41.0 °F 40% 30.10 in 9.0 mi Calm Calm - N/A   Clear
7:55 AM 66.2 °F 39.2 °F 37% 30.10 in 10.0 mi Calm Calm - N/A   Clear
8:15 AM 69.8 °F 41.0 °F 35% 30.10 in 10.0 mi NNW 3.5 mph - N/A   Clear
8:35 AM 69.8 °F 42.8 °F 38% 30.10 in 10.0 mi NE 3.5 mph - N/A   Clear
8:55 AM 71.6 °F 42.8 °F 35% 30.10 in 10.0 mi Calm Calm - N/A   Clear
9:15 AM 73.4 °F 42.8 °F 33% 30.10 in 10.0 mi Calm Calm - N/A   Clear
9:35 AM 75.2 °F 42.8 °F 31% 30.09 in 9.0 mi WNW 4.6 mph - N/A   Clear
9:55 AM 75.2 °F 42.8 °F 31% 30.09 in 9.0 mi NW 3.5 mph - N/A   Clear
10:15 AM 78.8 °F 44.6 °F 30% 30.09 in 8.0 mi NW 4.6 mph - N/A   Clear
10:35 AM 80.6 °F 42.8 °F 26% 30.08 in 8.0 mi Calm Calm - N/A   Clear
10:55 AM 82.4 °F 42.8 °F 25% 30.07 in 8.0 mi NE 5.8 mph - N/A   Clear
11:15 AM 82.4 °F 42.8 °F 25% 30.07 in 8.0 mi NNE 4.6 mph - N/A   Clear
11:35 AM 82.4 °F 44.6 °F 26% 30.06 in 8.0 mi East 5.8 mph - N/A   Clear
11:55 AM 84.2 °F 44.6 °F 25% 30.05 in 9.0 mi NE 4.6 mph - N/A   Clear
12:15 PM 87.8 °F 44.6 °F 22% 30.05 in 9.0 mi Calm Calm - N/A   Clear
12:35 PM 89.6 °F 44.6 °F 21% 30.03 in 9.0 mi NE 5.8 mph - N/A   Clear
12:55 PM 89.6 °F 46.4 °F 22% 30.03 in 8.0 mi North 3.5 mph - N/A   Clear
1:15 PM 91.4 °F 48.2 °F 23% 30.01 in 8.0 mi North 4.6 mph - N/A   Clear
1:35 PM 93.2 °F 48.2 °F 21% 30.00 in 7.0 mi NNE 5.8 mph - N/A   Clear
1:55 PM 93.2 °F 46.4 °F 20% 29.98 in 7.0 mi NE 6.9 mph - N/A   Clear
2:15 PM 96.8 °F 48.2 °F 19% 29.97 in 8.0 mi North 5.8 mph - N/A   Clear
2:35 PM 98.6 °F 48.2 °F 18% 29.96 in 9.0 mi NNE 8.1 mph - N/A   Clear
2:55 PM 98.6 °F 48.2 °F 18% 29.95 in 10.0 mi NNW 6.9 mph - N/A   Clear
3:35 PM 98.6 °F 46.4 °F 17% 29.95 in 10.0 mi West 13.8 mph 20.7 mph N/A   Clear
3:55 PM 93.2 °F 42.8 °F 17% 29.96 in 10.0 mi WNW 17.3 mph - N/A   Clear
4:15 PM 91.4 °F 42.8 °F 18% 29.95 in 10.0 mi WNW 17.3 mph - N/A   Clear
4:35 PM 89.6 °F 42.8 °F 20% 29.96 in 10.0 mi WNW 16.1 mph - N/A   Clear
4:55 PM 89.6 °F 42.8 °F 20% 29.95 in 10.0 mi WNW 16.1 mph 20.7 mph N/A   Clear
5:15 PM 89.6 °F 42.8 °F 20% 29.96 in 10.0 mi WNW 17.3 mph 20.7 mph N/A   Clear
5:35 PM 89.6 °F 42.8 °F 20% 29.95 in 10.0 mi WNW 13.8 mph - N/A   Clear
5:55 PM 89.6 °F 42.8 °F 20% 29.95 in 10.0 mi WNW 10.4 mph - N/A   Clear
6:15 PM 87.8 °F 42.8 °F 21% 29.96 in 10.0 mi NNW 5.8 mph - N/A   Clear
6:35 PM 84.2 °F 44.6 °F 25% 29.95 in 10.0 mi NW 6.9 mph - N/A   Clear
6:55 PM 86.0 °F 44.6 °F 23% 29.95 in 10.0 mi NNW 8.1 mph - N/A   Clear
7:15 PM 84.2 °F 44.6 °F 25% 29.95 in 10.0 mi NNW 8.1 mph - N/A   Clear
7:35 PM 82.4 °F 44.6 °F 26% 29.95 in 10.0 mi NNW 9.2 mph - N/A   Clear
7:55 PM 80.6 °F 44.6 °F 28% 29.96 in 10.0 mi NNW 8.1 mph - N/A   Clear
8:15 PM 80.6 °F 42.8 °F 26% 29.96 in 10.0 mi NNW 8.1 mph - N/A   Clear
8:35 PM 78.8 °F 42.8 °F 28% 29.96 in 10.0 mi NNW 6.9 mph - N/A   Clear
8:55 PM 78.8 °F 42.8 °F 28% 29.96 in 10.0 mi WNW 6.9 mph - N/A   Clear
9:15 PM 78.8 °F 44.6 °F 30% 29.98 in 10.0 mi SW 6.9 mph - N/A   Clear
9:35 PM 78.8 °F 42.8 °F 28% 29.96 in 10.0 mi NE 8.1 mph - N/A   Clear
9:55 PM 78.8 °F 42.8 °F 28% 29.96 in 10.0 mi NE 5.8 mph - N/A   Clear
10:35 PM 75.2 °F 44.6 °F 34% 29.97 in 10.0 mi NNE 9.2 mph - N/A   Scattered Clouds
10:55 PM 73.4 °F 44.6 °F 36% 29.98 in 10.0 mi ENE 5.8 mph - N/A   Clear
11:15 PM 75.2 °F 44.6 °F 34% 29.99 in 10.0 mi WSW 9.2 mph - N/A   Clear
11:35 PM 75.2 °F 44.6 °F 34% 30.00 in 10.0 mi WNW 4.6 mph - N/A   Mostly Cloudy
11:55 PM 78.8 °F 44.6 °F 30% 30.00 in 10.0 mi West 8.1 mph - N/A   Mostly Cloudy